Helicity
121 116 99 115 112 175 128 24 32 20 38 53 27 38 18 16 13 15 22 29 34 39 49 72 92 114 160 124 111 116 149 118 87 73 81 107 127 148 121 101 110 139 99 114 94 54 39
67 111 123 117 75 114 91 122 22 38 24 39 37 53 32 26 27 24 28 36 45 54 59 63 84 111 131 91 70 120 154 198 156 133 100 120 121 128 135 111 107 141 146 75 73 63 39
39 46 71 98 119 105 75 145 177 44 34 27 40 52 50 38 36 26 40 38 43 49 64 62 59 79 81 41 69 102 162 130 158 144 123 80 105 160 205 121 122 91 80 93 100 96 51
46 55 67 69 74 155 89 131 154 135 47 21 27 24 64 54 52 39 41 43 58 81 69 66 78 75 34 57 98 43 83 119 105 91 93 90 99 158 173 195 177 140 111 72 66 90 103
55 64 52 62 92 106 163 135 171 157 163 63 22 10 45 73 67 54 51 63 79 89 91 107 99 77 31 96 89 68 85 137 141 137 118 120 163 179 219 186 156 144 134 122 93 105 138
63 48 51 51 65 92 110 164 171 229 175 215 68 16 26 106 81 60 71 97 106 121 141 147 133 83 59 72 88 83 71 122 166 173 192 160 217 234 248 228 234 194 168 102 70 99 124
67 54 47 36 41 73 122 119 187 149 153 149 157 45 26 103 118 73 161 201 186 145 154 115 90 89 99 95 102 116 115 228 216 245 232 239 282 332 239 209 167 152 133 144 143 126 137
76 65 56 61 72 47 92 116 130 214 153 139 178 84 44 124 137 129 209 193 118 120 78 41 90 72 166 163 123 141 135 220 244 245 285 295 235 263 237 208 164 146 136 126 89 84 119
57 51 48 53 49 41 73 125 123 156 164 105 184 120 56 151 139 199 142 163 103 94 86 78 112 125 128 142 151 134 167 209 216 271 273 253 253 173 236 203 196 177 163 142 113 110 63
47 40 35 40 28 17 60 59 65 97 174 121 123 226 58 192 267 191 126 115 95 89 107 53 93 113 154 237 151 136 128 196 244 195 207 186 157 148 212 172 194 140 144 96 104 120 117
54 41 35 43 25 20 22 46 75 72 79 192 -53 272 81 324 320 243 123 144 109 107 143 85 125 95 92 115 142 103 141 203 221 238 284 254 169 154 136 154 113 169 101 109 107 146 146
43 43 55 38 32 19 7 34 81 83 73 131 78 210 88 377 335 160 138 174 138 205 157 94 120 122 131 72 159 179 124 97 181 201 194 191 138 186 185 109 133 162 122 90 133 154 204
54 43 55 21 22 9 12 37 46 54 119 94 68 47 100 467 326 203 214 235 242 217 141 117 129 136 110 135 118 148 143 155 218 247 248 186 136 234 177 172 138 142 160 282 232 312 322
37 53 66 27 3 21 2 -20 12 149 135 56 71 -11 108 525 276 206 270 322 227 122 155 123 108 152 128 138 124 146 179 180 175 291 244 221 218 139 201 191 214 155 162 299 377 299 174
38 53 53 41 -1 -12 -25 -42 217 154 108 46 54 -182 46 251 222 231 309 260 134 108 107 132 165 148 109 114 152 119 118 104 163 183 146 157 123 175 136 122 219 173 143 121 155 137 190
34 39 44 17 -5 -33 -23 -19 121 60 80 84 -18 -73 80 230 212 195 275 173 127 107 113 134 114 66 75 101 119 149 107 66 135 202 183 124 100 91 87 120 88 144 84 152 174 146 92
34 35 32 -32 -13 -6 17 -14 49 98 72 48 60 -28 151 218 298 266 222 153 91 63 88 105 67 86 85 100 128 113 14 -9 71 47 181 40 5 -10 97 99 168 159 106 153 136 152 132
33 28 19 -15 -23 26 52 -0 16 58 7 95 50 48 175 266 267 238 160 81 61 63 123 110 59 51 84 113 38 90 50 27 33 115 114 89 10 36 113 98 104 70 110 155 21 -28 -78
23 23 13 -10 -18 13 70 20 18 80 105 94 78 180 275 200 344 174 71 76 96 62 66 62 45 55 50 -23 2 78 59 13 115 155 112 122 95 69 -8 61 65 -24 -9 -18 -10 -48 -87
22 18 13 -6 -21 20 51 6 -0 119 273 138 80 231 203 162 203 131 75 53 51 57 11 12 28 67 -3 -22 -15 3 7 -9 66 69 97 34 38 139 138 2 -23 7 -25 14 -16 -54 -59
18 13 2 -16 -19 36 67 26 -14 145 448 84 178 179 260 132 105 52 87 43 29 41 18 5 12 -23 -22 -6 -11 4 10 31 33 76 62 45 113 152 108 83 36 -28 -39 33 12 79 -91
31 2 -3 -21 -7 43 96 85 17 162 571 91 142 237 224 167 61 66 39 16 33 13 11 19 23 -16 -32 4 -1 -30 4 44 78 110 123 40 143 161 418 424 277 -31 -10 -10 107 41 13
27 2 -0 -9 -17 39 85 101 84 90 257 110 272 323 247 79 125 55 26 31 28 7 2 25 -5 -25 -20 14 50 -63 -38 -23 -13 148 199 223 245 250 285 31 11 -5 9 8 89 13 6
20 3 2 -15 -22 37 87 117 114 89 161 154 159 276 246 161 26 57 52 37 4 -9 11 6 4 -22 11 32 -3 -28 -34 -33 -7 138 268 270 317 217 72 33 38 7 -22 62 111 35 47
15 3 -1 -13 -24 38 75 116 139 122 101 93 84 230 151 63 61 36 52 36 11 -0 -19 14 14 56 86 44 18 -10 14 12 41 116 242 234 208 166 146 96 59 94 122 146 130 143 137
25 -11 -11 -12 -24 38 73 132 176 140 174 204 149 89 163 91 89 72 26 77 25 17 27 15 36 65 66 56 24 22 19 25 23 15 17 58 63 32 101 50 41 46 102 141 135 68 71
20 16 -9 -1 -16 27 85 118 180 144 190 227 289 215 137 54 83 116 72 45 28 33 6 11 -5 13 75 71 43 22 57 30 46 23 -5 6 14 33 19 36 43 23 -8 21 -14 41 23
21 19 -11 -1 -5 19 80 128 177 125 207 236 198 164 122 100 76 46 52 53 70 40 -6 -13 -30 9 72 116 61 50 47 9 42 20 27 25 18 -3 13 17 9 11 -10 -9 11 19 34
28 16 -15 10 10 23 69 114 154 104 205 287 185 77 53 99 68 56 28 25 45 35 16 6 -6 38 146 145 66 50 28 27 44 60 34 26 26 1 -0 -0 18 40 18 25 10 27 2
Wind_Speed
78 78 78 77 77 78 76 73 68 69 65 66 61 45 47 47 50 51 48 43 41 36 36 36 33 28 27 42 43 33 31 29 21 10 16 24 35 39 44 45 58 64 70 72 73 81 84
80 81 80 81 81 82 81 79 74 67 67 65 62 47 43 44 43 45 45 44 41 37 34 36 33 28 35 50 34 31 31 30 25 20 21 20 29 31 44 46 55 56 65 73 76 80 74
81 80 79 80 83 84 80 81 81 72 68 67 64 50 41 38 39 40 40 41 39 37 35 35 33 32 39 47 29 23 35 31 27 27 31 30 33 37 41 50 53 61 79 83 76 68 72
85 85 85 85 82 84 80 80 81 74 71 68 66 57 38 36 37 37 36 39 38 41 34 33 34 34 44 35 35 36 28 31 21 22 29 28 29 39 41 49 53 57 64 78 72 73 65
90 92 91 88 89 86 85 83 82 79 76 74 70 69 44 33 34 35 35 36 36 36 34 33 36 38 50 39 35 31 26 30 26 25 29 32 34 41 41 53 65 55 74 70 73 62 64
94 94 95 93 91 90 89 87 86 85 80 77 76 70 59 35 32 32 34 30 32 32 33 34 41 43 43 34 28 31 22 18 29 29 36 39 40 46 44 47 63 65 70 70 78 67 66
94 97 96 94 91 93 94 89 89 86 83 81 78 75 55 40 32 27 23 27 39 46 41 41 36 37 36 27 26 33 27 20 30 36 43 42 51 57 51 50 61 75 83 81 71 64 76
94 96 97 97 98 96 95 91 89 88 87 85 81 78 63 36 31 26 26 41 41 39 54 53 53 47 40 38 41 36 18 31 38 47 41 52 64 55 52 56 68 72 81 89 88 81 84
94 95 97 98 98 98 95 92 90 87 84 85 79 79 65 38 31 30 38 40 31 40 57 57 49 54 49 41 47 39 24 33 42 45 46 55 53 46 57 63 70 71 75 83 92 83 93
92 93 97 96 98 97 92 91 90 84 82 84 78 79 67 40 38 38 43 33 31 36 60 56 43 46 35 36 53 30 17 31 42 51 48 62 60 63 63 67 63 85 60 69 80 84 98
88 90 92 98 97 89 90 90 89 82 82 80 79 73 67 47 35 43 35 21 20 32 72 36 35 32 19 19 32 29 16 34 47 47 45 60 57 57 68 64 52 69 59 66 72 80 90
86 86 90 97 95 90 85 89 89 81 82 83 77 69 52 50 40 39 19 15 19 43 68 39 30 27 23 29 36 34 28 32 41 47 53 62 50 52 58 57 54 53 59 67 65 75 101
80 84 87 90 88 84 84 83 84 83 83 79 76 72 60 49 46 28 26 21 42 58 35 39 34 25 27 31 40 38 34 40 51 62 67 62 65 54 50 57 48 52 64 72 73 79 91
81 84 81 79 83 81 79 80 84 76 78 69 70 68 66 54 34 35 33 38 58 45 41 29 26 20 24 28 37 34 40 46 41 50 63 70 78 51 43 52 55 53 58 73 84 82 88
78 79 77 70 74 64 74 78 74 73 65 63 62 61 64 58 39 38 40 58 53 41 29 21 17 25 27 28 32 25 31 39 41 34 54 59 65 46 41 39 42 45 61 54 79 80 78
76 74 69 49 63 55 66 68 69 62 44 30 56 55 64 46 41 36 46 58 49 39 25 23 21 11 17 17 16 20 21 21 0 8 16 25 52 39 35 30 43 44 34 51 54 74 85
76 72 65 56 58 59 66 65 63 59 38 38 48 54 55 44 36 38 61 53 48 40 29 23 18 17 16 15 8 6 15 7 9 14 27 29 27 12 8 17 30 42 64 53 49 55 62
75 72 65 79 65 68 67 65 62 48 41 44 48 58 64 42 39 48 53 47 41 41 38 35 26 15 12 9 25 8 1 7 14 14 25 29 21 26 35 3 17 25 29 59 77 80 85
74 74 73 79 66 64 65 62 54 56 39 38 48 49 55 46 50 49 51 54 45 40 40 30 21 19 6 44 29 16 10 10 13 20 20 26 20 20 19 25 25 49 57 86 87 68 80
74 73 75 78 64 58 53 50 53 58 44 42 49 43 54 65 52 58 57 54 51 48 52 34 31 19 51 52 35 20 18 16 20 20 16 20 21 26 31 31 29 52 67 88 89 85 74
75 74 83 72 59 48 49 51 55 52 42 42 46 53 56 85 68 38 62 52 58 47 42 41 39 55 55 51 40 40 27 25 19 23 22 22 32 36 45 46 44 47 56 77 84 86 75
73 70 83 65 53 50 51 52 49 43 33 40 44 59 67 38 30 35 62 68 53 53 45 45 53 50 57 55 50 33 30 26 21 27 26 28 27 27 37 44 58 59 58 66 80 77 78
68 74 73 64 53 50 44 44 45 40 26 37 37 41 46 22 30 63 63 61 60 55 55 57 55 55 56 59 51 55 44 33 29 24 26 24 24 24 22 29 52 55 69 71 76 76 72
66 66 65 58 52 48 44 44 41 37 33 38 34 40 49 45 53 68 46 60 61 54 56 48 57 56 47 45 50 51 45 37 32 29 25 22 25 29 34 38 31 30 50 71 70 71 73
61 69 63 57 54 49 45 44 42 39 37 36 38 47 41 35 38 61 66 52 52 53 59 62 60 55 43 49 47 48 46 43 34 38 36 35 30 24 23 32 37 20 48 59 66 61 71
60 52 63 58 55 51 48 46 45 42 43 42 40 36 38 27 50 42 60 57 58 54 49 51 45 39 44 47 48 47 47 38 37 32 39 39 36 27 21 18 17 17 49 55 55 45 64
57 41 64 60 56 52 48 46 46 46 42 39 44 38 37 35 35 37 47 51 44 43 47 48 49 49 33 54 55 50 47 40 37 32 18 24 34 38 30 25 22 21 21 34 28 31 33
55 50 66 60 57 53 50 48 47 45 40 39 48 46 41 42 37 39 43 42 41 41 48 44 47 45 36 40 45 40 45 41 35 28 26 17 23 30 28 25 22 24 19 14 26 23 8
52 48 68 59 58 53 52 49 49 44 41 38 39 39 38 38 38 41 45 45 40 37 41 41 46 40 43 35 38 35 30 26 28 34 29 23 29 26 19 24 25 26 25 25 24 24 14
Wind_Direction
335 328 326 324 319 316 314 301 301 293 294 287 285 290 292 291 286 282 285 290 293 300 302 301 304 308 302 287 286 312 323 334 344 320 304 308 301 298 292 293 278 275 274 273 272 268 267
340 337 329 324 317 315 309 308 296 297 290 288 285 284 289 289 288 288 286 287 290 297 303 301 304 308 296 283 306 306 313 316 330 332 317 312 312 308 298 295 284 284 278 275 273 271 275
345 342 340 331 321 313 311 303 305 295 291 287 281 282 282 286 286 288 288 288 291 295 300 302 306 307 295 287 319 319 307 307 313 313 309 310 305 301 308 295 292 286 277 272 272 276 276
343 339 335 330 328 318 310 305 300 303 292 285 278 279 276 278 281 285 286 286 291 292 298 302 306 307 295 312 305 301 314 311 311 311 312 318 314 302 293 299 295 291 284 275 275 273 279
339 335 333 331 324 320 314 307 300 296 296 284 278 273 272 268 274 280 283 286 292 295 298 299 300 303 292 309 304 305 307 305 312 312 311 311 309 299 298 291 287 285 280 279 279 276 276
341 339 335 332 328 322 315 308 301 293 289 289 275 273 268 261 267 274 278 285 293 295 295 299 296 296 295 306 318 319 314 309 310 310 303 300 298 290 287 283 281 284 280 280 276 278 275
345 342 340 334 331 324 317 311 302 293 287 288 279 269 267 256 255 263 265 281 282 282 278 280 291 293 305 312 325 316 320 307 307 303 291 297 284 279 280 280 283 284 280 279 278 283 276
347 345 342 337 331 325 318 312 305 294 285 280 277 266 263 245 248 247 252 267 278 290 281 275 279 280 297 307 300 307 325 298 294 289 293 291 282 284 287 283 281 280 280 277 276 279 278
347 345 343 338 333 326 317 312 306 296 287 277 276 263 259 237 235 244 253 262 286 295 285 285 280 278 283 288 292 296 296 298 298 290 286 283 296 289 282 281 279 279 278 277 275 280 277
348 346 343 339 332 325 320 312 302 294 290 280 273 267 253 228 236 244 255 262 278 299 282 284 287 291 284 287 293 285 284 304 299 290 289 290 286 283 288 280 279 277 281 281 277 274 269
349 347 345 341 334 327 320 314 304 297 284 280 264 266 246 217 235 240 260 242 274 292 272 289 288 307 307 278 313 306 295 302 296 294 292 292 293 283 275 278 280 281 285 280 277 274 271
349 347 345 341 338 329 323 314 306 294 284 275 256 259 237 225 235 241 219 208 268 271 268 282 294 289 293 287 306 320 309 304 316 294 288 287 297 289 285 284 274 288 284 279 279 271 266
351 349 347 345 342 330 320 313 307 294 283 266 244 248 256 215 226 203 183 206 257 261 286 284 286 290 291 296 297 306 305 299 299 296 291 289 279 290 289 283 283 271 273 276 268 263 265
353 351 351 350 343 319 312 312 306 293 283 255 238 245 243 223 183 176 190 236 254 271 271 296 299 299 300 304 307 304 311 306 294 297 297 286 285 274 276 275 278 269 262 264 268 269 270
353 354 355 356 309 302 312 311 306 299 282 248 240 234 241 215 179 185 205 241 253 266 277 280 304 303 303 308 320 321 310 312 314 286 292 294 289 298 292 268 265 275 265 260 267 272 276
356 356 358 346 304 302 309 311 311 304 278 255 230 228 232 190 176 188 225 244 255 267 276 283 294 313 320 328 331 341 351 17 204 185 188 317 295 301 294 285 271 265 284 268 260 264 266
359 359 0 304 302 305 311 314 313 313 277 266 228 223 215 188 185 206 233 242 252 262 270 284 304 316 328 338 346 71 161 104 99 123 160 172 181 153 344 204 273 266 261 267 266 262 266
0 1 1 325 306 310 311 312 313 308 291 252 224 220 199 172 194 226 233 242 252 257 263 279 304 320 333 354 180 150 20 10 24 62 155 170 166 193 204 232 219 199 257 249 227 218 214
2 3 358 321 303 303 307 309 307 311 291 231 213 206 200 193 219 221 230 235 245 251 259 279 301 320 357 210 187 152 114 117 145 139 121 147 160 190 187 182 188 196 195 205 208 221 207
3 4 358 322 301 297 295 302 305 309 281 226 211 205 200 217 228 223 222 229 236 246 250 270 295 321 253 227 186 162 145 118 131 142 122 139 181 185 201 190 177 194 196 199 199 200 202
4 5 350 319 305 292 293 299 310 305 291 214 219 212 211 207 215 217 221 231 233 247 254 262 282 250 234 238 194 198 189 194 137 148 163 187 209 204 220 223 212 196 182 185 190 196 196
5 5 337 313 305 299 297 303 307 311 290 226 221 212 206 213 219 223 223 228 234 240 254 260 255 258 240 218 206 191 165 157 157 162 175 186 206 208 227 224 209 198 188 187 190 195 204
6 5 321 317 307 304 295 299 307 308 272 226 236 222 213 195 217 220 226 231 233 239 251 253 250 250 244 228 208 210 219 221 207 169 163 173 184 192 220 159 150 184 192 189 181 188 192
8 1 315 312 307 303 295 297 295 300 273 244 252 240 230 229 181 221 234 230 230 240 249 265 253 256 271 277 264 220 210 215 201 183 153 154 142 150 147 159 178 198 192 188 179 189 195
8 354 313 309 308 301 293 292 293 286 284 259 246 234 228 231 225 227 228 241 240 249 250 240 257 270 280 269 256 245 263 260 194 202 172 156 152 164 181 166 159 178 153 171 179 190 198
9 308 311 307 307 299 296 290 293 293 292 280 242 234 236 239 230 242 232 241 247 252 265 270 279 286 277 262 251 248 244 274 254 294 190 180 178 218 235 249 236 266 124 154 150 196 170
9 358 311 306 305 299 292 289 293 300 293 279 238 246 248 251 256 253 245 245 258 264 268 270 273 275 281 248 245 256 254 266 276 296 349 312 243 206 243 266 267 257 32 85 93 258 131
10 12 311 304 301 296 292 289 293 295 290 287 249 247 250 252 256 258 254 256 264 273 267 268 271 265 265 248 252 264 258 268 285 312 304 319 322 291 279 301 332 330 29 358 320 335 50
10 12 314 303 301 293 290 286 290 288 285 283 249 263 256 256 260 263 261 266 273 286 285 278 275 271 256 256 260 273 282 292 294 293 290 312 293 314 340 331 329 304 337 320 356 21 29